Weather History for KNYL - April, 2013

Change the Weather History Date:

Tuesday, April 9, 2013

  Actual Average Record
Temperature  
Mean Temperature 68 °F 71 °F  
Max Temperature 80 °F 85 °F 102 °F (1989)
Min Temperature 55 °F 58 °F 43 °F (1953)
Degree Days  
Heating Degree Days 0 1  
Month to date heating degree days 0 9  
Since 1 July heating degree days 705 682  
Cooling Degree Days 3 7  
Month to date cooling degree days 80 55  
Year to date cooling degree days 289 208  
Growing Degree Days 17 (Base 50)    
Moisture  
Dew Point 25 °F    
Average Humidity 26    
Maximum Humidity 43    
Minimum Humidity 8    
Precipitation  
Precipitation 0.00 in 0.01 in 0.26 in (1975)
Month to date precipitation T 0.07  
Year to date precipitation 1.11 1.16  
Sea Level Pressure  
Sea Level Pressure 29.78 in    
Wind  
Wind Speed 11 mph (WNW)    
Max Wind Speed 22 mph    
Max Gust Speed 28 mph    
Visibility 10 miles    
Events      
T = Trace of Precipitation, MM = Missing Value Source: NWS Daily Summary

Daily Weather History Graph

Daily Weather History Graph

Search for Another Location

Airport or City:

Trip Planner

Search our weather history database for the weather conditions in past years. The results will help you decide how hot, cold, wet, or windy it might be!

Date:

Astronomy

Apr. 09, 2013 Rise Set
Actual Time 6:15 AM MST 7:04 PM MST
Civil Twilight 5:50 AM MST 7:29 PM MST
Nautical Twilight 5:21 AM MST 7:59 PM MST
Astronomical Twilight 4:51 AM MST 8:29 PM MST
Moon 5:39 AM MST (4/9) 6:43 PM MST (4/9)
Length of Visible Light 13h 38m
Length of Day
12h 48m
Waning Crescent, 0% of the Moon is Illuminated
Apr 9
Waning Crescent
Apr 10
New
Apr 18
First Quarter
Apr 25
Full
May 2
Last Quarter

Hourly Weather History & Observations

Time (MST) Temp. Dew Point Humidity Pressure Visibility Wind Dir Wind Speed Gust Speed Precip Events Conditions
12:55 AM 59.0 °F 35.1 °F 41% 29.67 in 7.0 mi WNW 21.9 mph 27.6 mph N/A   Scattered Clouds
1:55 AM 57.9 °F 36.0 °F 44% 29.67 in 7.0 mi West 15.0 mph - N/A   Scattered Clouds
2:55 AM 57.9 °F 35.1 °F 42% 29.68 in 7.0 mi WNW 11.5 mph - N/A   Mostly Cloudy
3:55 AM 57.9 °F 35.1 °F 42% 29.69 in 10.0 mi WNW 10.4 mph - N/A   Mostly Cloudy
4:55 AM 55.9 °F 34.0 °F 44% 29.71 in 10.0 mi WNW 8.1 mph - N/A   Scattered Clouds
5:55 AM 55.9 °F 33.1 °F 42% 29.74 in 10.0 mi NW 8.1 mph - N/A   Scattered Clouds
6:55 AM 57.0 °F 33.1 °F 40% 29.76 in 10.0 mi WNW 10.4 mph - N/A   Partly Cloudy
7:55 AM 59.0 °F 33.1 °F 38% 29.79 in 10.0 mi WNW 12.7 mph - N/A   Partly Cloudy
8:55 AM 63.0 °F 32.0 °F 31% 29.80 in 10.0 mi WNW 13.8 mph - N/A   Partly Cloudy
9:55 AM 68.0 °F 30.0 °F 24% 29.81 in 10.0 mi WNW 15.0 mph - N/A   Partly Cloudy
10:55 AM 73.0 °F 19.9 °F 14% 29.81 in 10.0 mi NNW 13.8 mph 20.7 mph N/A   Partly Cloudy
11:55 AM 75.0 °F 16.0 °F 11% 29.81 in 10.0 mi NW 15.0 mph 27.6 mph N/A   Partly Cloudy
12:55 PM 77.0 °F 16.0 °F 10% 29.79 in 10.0 mi NW 16.1 mph 26.5 mph N/A   Partly Cloudy
1:55 PM 78.1 °F 16.0 °F 10% 29.79 in 10.0 mi West 13.8 mph 18.4 mph N/A   Partly Cloudy
2:55 PM 78.1 °F 15.1 °F 9% 29.78 in 10.0 mi North 12.7 mph 23.0 mph N/A   Partly Cloudy
3:55 PM 79.0 °F 14.0 °F 9% 29.77 in 10.0 mi North 17.3 mph 23.0 mph N/A   Partly Cloudy
4:55 PM 78.1 °F 15.1 °F 9% 29.77 in 10.0 mi West 11.5 mph 21.9 mph N/A   Clear
5:55 PM 77.0 °F 16.0 °F 10% 29.77 in 10.0 mi WNW 11.5 mph - N/A   Clear
6:55 PM 73.9 °F 18.0 °F 12% 29.78 in 10.0 mi WNW 4.6 mph - N/A   Clear
7:55 PM 72.0 °F 12.9 °F 10% 29.81 in 10.0 mi Calm Calm - N/A   Clear
8:55 PM 70.0 °F 15.1 °F 12% 29.84 in 10.0 mi WNW 3.5 mph - N/A   Clear
9:55 PM 66.0 °F 21.0 °F 18% 29.86 in 10.0 mi Calm Calm - N/A   Clear
10:55 PM 64.0 °F 26.1 °F 24% 29.88 in 10.0 mi WNW 6.9 mph - N/A   Clear
11:55 PM 63.0 °F 33.1 °F 33% 29.91 in 10.0 mi NW 4.6 mph - N/A   Clear